Time,TemperatureF,DewpointF,PressureIn,WindDirection,WindDirectionDegrees,WindSpeedMPH,WindSpeedGustMPH,Humidity,HourlyPrecipIn,Conditions,Clouds,dailyrainin,SoftwareType,DateUTC
2013-05-10 00:01:00,64.0,42.0,-100.00,WNW,295,7.0,13.0,44,-99.99,,,-99.99,,2013-05-10 07:01:00,
2013-05-10 00:10:00,62.0,42.0,-100.00,WNW,295,8.0,13.0,47,-99.99,,,-99.99,,2013-05-10 07:10:00,
2013-05-10 01:02:00,62.0,42.0,-100.00,WNW,295,8.0,13.0,47,-99.99,,,-99.99,,2013-05-10 08:02:00,
2013-05-10 02:01:00,58.0,41.0,-100.00,NW,305,5.0,14.0,53,-99.99,,,-99.99,,2013-05-10 09:01:00,
2013-05-10 02:10:00,56.0,41.0,-100.00,WNW,300,9.0,13.0,57,-99.99,,,-99.99,,2013-05-10 09:10:00,
2013-05-10 02:11:00,58.0,41.0,-100.00,NW,305,5.0,14.0,53,-99.99,,,-99.99,,2013-05-10 09:11:00,
2013-05-10 03:02:00,56.0,41.0,-100.00,WNW,300,9.0,13.0,57,-99.99,,,-99.99,,2013-05-10 10:02:00,
2013-05-10 04:02:00,55.0,40.0,-100.00,WNW,300,10.0,14.0,56,-99.99,,,-99.99,,2013-05-10 11:02:00,
2013-05-10 04:12:00,55.0,40.0,-100.00,WNW,300,10.0,14.0,56,-99.99,,,-99.99,,2013-05-10 11:12:00,
2013-05-10 05:01:00,55.0,41.0,-100.00,WNW,285,9.0,18.0,59,-99.99,,,-99.99,,2013-05-10 12:01:00,
2013-05-10 05:10:00,55.0,40.0,-100.00,WNW,295,7.0,13.0,56,-99.99,,,-99.99,,2013-05-10 12:10:00,
2013-05-10 06:01:00,55.0,40.0,-100.00,WNW,295,7.0,13.0,56,-99.99,,,-99.99,,2013-05-10 13:01:00,
2013-05-10 07:02:00,53.0,40.0,-100.00,West,270,7.0,14.0,61,-99.99,,,-99.99,,2013-05-10 14:02:00,
2013-05-10 07:10:00,-999.0,-99.9,-100.00,NW,320,5.0,9.0,61,-99.99,,,-99.99,,2013-05-10 14:10:00,
2013-05-10 07:11:00,53.0,40.0,-100.00,West,270,7.0,14.0,61,-99.99,,,-99.99,,2013-05-10 14:11:00,
2013-05-10 08:01:00,55.0,42.0,-100.00,NW,320,5.0,9.0,61,-99.99,,,-99.99,,2013-05-10 15:01:00,
2013-05-10 09:02:00,60.0,45.0,-100.00,North,350,3.0,8.0,57,-99.99,,,-99.99,,2013-05-10 16:02:00,
2013-05-10 09:12:00,60.0,45.0,-100.00,North,350,3.0,8.0,57,-99.99,,,-99.99,,2013-05-10 16:12:00,
2013-05-10 09:20:00,67.0,48.0,-100.00,North,360,2.0,8.0,50,-99.99,,,-99.99,,2013-05-10 16:20:00,
2013-05-10 10:02:00,67.0,48.0,-100.00,North,360,2.0,8.0,50,-99.99,,,-99.99,,2013-05-10 17:02:00,
2013-05-10 10:10:00,-999.0,-99.9,-100.00,NNE,25,3.0,7.0,42,-99.99,,,-99.99,,2013-05-10 17:10:00,
2013-05-10 10:12:00,67.0,48.0,-100.00,North,360,2.0,8.0,50,-99.99,,,-99.99,,2013-05-10 17:12:00,
2013-05-10 12:02:00,83.0,52.0,-100.00,NNE,15,3.0,6.0,34,-99.99,,,-99.99,,2013-05-10 19:02:00,
2013-05-10 12:11:00,83.0,52.0,-100.00,NNE,15,3.0,6.0,34,-99.99,,,-99.99,,2013-05-10 19:11:00,
2013-05-10 13:01:00,83.0,52.0,-100.00,South,175,2.0,5.0,34,-99.99,,,-99.99,,2013-05-10 20:01:00,
2013-05-10 14:01:00,89.0,55.0,-100.00,East,100,1.0,6.0,31,-99.99,,,-99.99,,2013-05-10 21:01:00,
2013-05-10 15:02:00,89.0,53.0,-100.00,SE,125,2.0,6.0,29,-99.99,,,-99.99,,2013-05-10 22:02:00,
2013-05-10 16:02:00,90.0,53.0,-100.00,SE,135,6.0,7.0,28,-99.99,,,-99.99,,2013-05-10 23:02:00,
2013-05-10 17:01:00,91.0,55.0,-100.00,SSW,195,2.0,3.0,29,-99.99,,,-99.99,,2013-05-11 00:01:00,
2013-05-10 18:01:00,90.0,51.0,-100.00,North,350,5.0,15.0,26,-99.99,,,-99.99,,2013-05-11 01:01:00,
2013-05-10 18:10:00,86.0,52.0,-100.00,North,10,2.0,7.0,31,-99.99,,,-99.99,,2013-05-11 01:10:00,
2013-05-10 19:02:00,86.0,52.0,-100.00,North,10,2.0,7.0,31,-99.99,,,-99.99,,2013-05-11 02:02:00,
2013-05-10 20:01:00,82.0,50.0,-100.00,NW,315,2.0,6.0,32,-99.99,,,-99.99,,2013-05-11 03:01:00,
2013-05-10 20:10:00,78.0,46.0,-100.00,NW,325,2.0,5.0,32,-99.99,,,-99.99,,2013-05-11 03:10:00,
2013-05-10 20:11:00,82.0,50.0,-100.00,NW,315,2.0,6.0,32,-99.99,,,-99.99,,2013-05-11 03:11:00,
2013-05-10 21:02:00,78.0,46.0,-100.00,NW,325,2.0,5.0,32,-99.99,,,-99.99,,2013-05-11 04:02:00,
2013-05-10 22:02:00,69.0,47.0,-100.00,North,360,3.0,6.0,45,-99.99,,,-99.99,,2013-05-11 05:02:00,
2013-05-10 22:12:00,69.0,47.0,-100.00,North,360,3.0,6.0,45,-99.99,,,-99.99,,2013-05-11 05:12:00,
2013-05-10 22:20:00,73.0,49.0,-100.00,WNW,300,7.0,13.0,42,-99.99,,,-99.99,,2013-05-11 05:20:00,
2013-05-10 23:02:00,73.0,49.0,-100.00,WNW,300,7.0,13.0,42,-99.99,,,-99.99,,2013-05-11 06:02:00,
2013-05-10 23:10:00,70.0,48.0,-100.00,WNW,295,7.0,10.0,45,-99.99,,,-99.99,,2013-05-11 06:10:00,
2013-05-10 23:12:00,73.0,49.0,-100.00,WNW,300,7.0,13.0,42,-99.99,,,-99.99,,2013-05-11 06:12:00,